Zurück zum Katalog

CZ-6A DEB

AktivPO
NORAD 54489·DEBRIS·🇨🇳 China

Gestartet Nov 11, 2022 von Taiyuan Satellite Launch Center

Loading…

Nächste Überflüge (nächste 24 Stunden)

TLE

AktuellSource: Space-Track

Epoche: Sep 13, 2026, 03:35 UTC

1 54489U 22151HR  26256.14973138  .00005284  00000-0  91043-3 0  9997
2 54489  98.6232 319.9277 0070036  33.3990 327.1602 14.67381787202370

Verfolge CZ-6A DEB in Echtzeit mit AllMySat

Download on the App Store